Regional Weather Roundup
Issued by NWS Sterling, VA

Home | Current Version | Previous Version | Text Only | Print | Product List | Glossary Off
Versions: 1 2 3 4 5 6 7 8 9 10 11 12 13 14 15 16 17 18 19 20 21 22 23 24 25 26 27 28 29 30 31 32 33 34 35 36 37 38 39 40 41 42 43 44 45 46 47 48 49 50

000
ASUS41 KLWX 280510
RWRLWX

REGIONAL WEATHER ROUNDUP
NATIONAL WEATHER SERVICE BALTIMORE MD/WASHINGTON DC
1200 AM EST FRI NOV 28 2014

Note: "FAIR" indicates few or no clouds below 12,000 feet
with no significant weather and/or obstructions to visibility.
 TC=TEMPERATURE CELSIUS

 * =Non NWS site. Station does not report precipitation (e.g. rain,
    snow, etc.), thunder, or fog.

DCZ001-MDZ009-015-VAZ040>042-051-053>054-280600-
WASHINGTON METRO

CITY           SKY/WX    TMP DP  RH WIND       PRES   REMARKS
WASHINGTON NAT PTCLDY    39  26  59 W12       30.19R
DULLES         PTCLDY    33  23  66 W14       30.20R WCI  23
ANDREWS AFB    PTCLDY    37  28  70 W8        30.17R
FT BELVOIR     CLEAR     37  26  64 W14       30.20R WCI  28
QUANTICO       CLEAR     36  25  64 NW14G22   30.22R WCI  27
COLLEGE PARK*  MOCLDY    37  32  81 W5        30.18R
LEESBURG*      CLEAR     34  28  80 NW15      30.20R WCI  24
MANASSAS*      PTCLDY    36  27  69 NW10G20   30.21R WCI  28
GAITHERSBURG*  CLOUDY    34  25  69 NW8       30.20R WCI  27

$$

MDZ006>007-011-014-280600-
BALTIMORE METRO

CITY           SKY/WX    TMP DP  RH WIND       PRES   REMARKS
BWI AIRPORT    MOCLDY    35  29  78 W7        30.15S
MD SCIENCE CTR   N/A     36  30  79 MISG      30.15F
MARTIN STATE   MOCLDY    37  32  81 W7        30.17S
ANNAPOLIS      CLOUDY    38  30  73 W8        30.16S
FORT MEADE*    CLOUDY    36  30  80 W12       30.19S WCI  27

$$

MDZ012-015-019>023-280600-
MARYLAND EASTERN SHORE

CITY           SKY/WX    TMP DP  RH WIND       PRES   REMARKS
OCEAN CITY     CLEAR     32  27  81 W3        30.14S
SALISBURY      CLEAR     30  26  85 SW3       30.15S
BAY BRIDGE AP*   N/A     37  32  81 W10G17    30.16S
CAMBRIDGE*     MOCLDY    39  32  75 NW13      30.15S
EASTON*        PTCLDY    38  33  83 NW7       30.18S

$$

MDZ017>025-280600-
SOUTHERN MARYLAND

CITY           SKY/WX    TMP DP  RH WIND       PRES   REMARKS
PATUXENT RIVER MOCLDY    37  27  67 W15       30.17R WCI  28
ST INIGOES     MOCLDY    38  27  64 W10       30.17S
LEONARDTOWN*   CLOUDY    36  28  75 W6        30.19S

$$

MDZ003>005-280600-
NORTH CENTRAL MARYLAND

CITY           SKY/WX    TMP DP  RH WIND       PRES   REMARKS
FREDERICK*     MOCLDY    36  23  60 W9G17     30.20S WCI  29
HAGERSTOWN APT MOCLDY    33  23  66 NW15      30.16S WCI  23
WESTMINSTER*   CLOUDY    34  28  80 W12       30.13S WCI  25

$$

MDZ501>502-280600-
WESTERN MARYLAND

CITY           SKY/WX    TMP DP  RH WIND       PRES   REMARKS
OAKLAND*       CLOUDY    21 N/A N/A W9G16     30.10R WCI  11
CUMBERLAND*    PTCLDY    32  23  69 W14G20    30.23S WCI  22

$$

VAZ025>031-280600-
SHENANDOAH VALLEY

CITY           SKY/WX    TMP DP  RH WIND       PRES   REMARKS
WINCHESTER*    CLEAR     34  19  55 W12G18    30.20R WCI  25
FRONT ROYAL*   FAIR      32  21  64 W9        30.19F WCI  24
LURAY*         FAIR      32  25  74 NW3       30.21R
NEW MARKET*    FAIR      31  22  67 NW3       30.21S
STAUNTON*      PTCLDY    29  20  67 E3        30.22S
WAYNESBORO*    FAIR      30  19  62 W7        30.19S

$$

WVZ021-048>050-054>055-280600-
EASTERN WEST VIRGINIA PANHANDLE

CITY           SKY/WX    TMP DP  RH WIND       PRES   REMARKS
MARTINSBURG    PTCLDY    34  19  54 W5        30.19S
PETERSBURG*    CLOUDY    32  20  61 W7        30.23S

$$

VAZ036>039-050-280600-
CENTRAL FOOTHILLS

CITY           SKY/WX    TMP DP  RH WIND       PRES   REMARKS
CHARLOTTESVILL MOCLDY    36  22  56 NW6       30.20S
CULPEPER*      MOCLDY    37  27  65 W8        30.21F
ORANGE*        FLURRIES  36  28  75 NW8       30.22S
GORDONSVILLE*  CLOUDY    36  23  59 CALM      30.20S
WARRENTON*     MOCLDY    35  30  82 NW13G18   30.20R WCI  26

$$

VAZ055>057-280600-
NORTH AND CENTRAL PIEDMONT

CITY           SKY/WX    TMP DP  RH WIND       PRES   REMARKS
FREDERICKSBRG* CLEAR     31  28  90 W3        30.20S
STAFFORD*      CLEAR     32  25  76 CALM      30.25S

$$

NCZ024-NYZ072-PAZ021-071-VAZ022-071-280600-
OTHER REGIONAL OBSERVATIONS

CITY           SKY/WX    TMP DP  RH WIND       PRES   REMARKS
NEW YORK CITY  PTCLDY    34  24  67 MISG      30.07F
PHILADELPHIA   PTCLDY    32  25  75 W8        30.13S WCI  25
PITTSBURGH     FLURRIES  29  24  82 W13       30.20S WCI  19
ROANOKE        CLOUDY    33  17  51 NW9       30.27S WCI  25
RICHMOND       CLEAR     36  25  64 NW7       30.20S
RALEIGH        PTCLDY    36  24  62 VRB3      30.26R

$$

ANZ530>537-280600-
MARINE OBSERVATIONS

STATION/POSITION TIME  TEMP    WIND        PRES
                       AIR SEA DIR/SP/G
                 (UTC) (F)     (DEG/KT/KT) (MB)
THOMAS PT LIGHT  0500   39 46  300/ 17/ 19 1022.2R
BALT KEY BRIDGE  0500   38     270/ 12/ 13 1021.0S
COVE POINT       0500   38     320/ 11/ 15 1021.4S
LEWISETTA        0500   38 47  290/  8/ 10 1021.6S
SOLOMONS ISLAND  0500      48                N/A
PINEY POINT      0500          330/ 22/ 23   N/A

$$



USA.gov is the U.S. government's official web portal to all federal, state and local government web resources and services.